Location: Bluff Heights
(33.7692°N, 118.1592°W)
Time: 03:52:30
(UTC+00:00)

A-11 Canister half - Visible Passes

Search period start: 06 August 2021 00:00
Search period end: 16 August 2021 00:00
Orbit: 1513 x 1687 km, 47.2° (Epoch: 05 August)

Date Brightness Start Highest point End Pass type
(mag) Time Alt. Az. Time Alt. Az. Time Alt. Az.
06 Aug 10.0 03:22:06 10° NW 03:31:23 41° NNE 03:40:51 10° E visible
06 Aug 9.1 05:27:32 10° NW 05:37:44 79° NE 05:40:52 51° ESE visible
06 Aug 10.2 07:33:25 10° WNW 07:39:02 29° W 07:39:02 29° W visible
07 Aug 10.1 02:59:06 10° WNW 03:08:18 40° N 03:17:43 10° ENE visible
07 Aug 9.1 05:04:36 10° NW 05:14:45 76° NE 05:18:51 42° ESE visible
07 Aug 10.0 07:10:20 10° WNW 07:17:01 34° WSW 07:17:01 34° WSW visible
08 Aug 9.2 04:41:38 10° NW 04:51:45 72° NNE 04:56:53 34° ESE visible
08 Aug 9.8 06:47:17 10° WNW 06:55:03 38° WSW 06:55:03 38° WSW visible
09 Aug 9.3 04:18:43 10° NW 04:28:46 69° NNE 04:34:58 27° ESE visible
09 Aug 9.6 06:24:13 10° WNW 06:33:08 43° SW 06:33:08 43° SW visible
10 Aug 9.3 03:55:46 10° NW 04:05:46 66° NNE 04:13:06 21° ESE visible
10 Aug 9.5 06:01:11 10° WNW 06:10:38 46° SW 06:11:17 46° SW visible
11 Aug 9.4 03:32:49 10° NW 03:42:45 63° NNE 03:51:18 16° ESE visible
11 Aug 9.4 05:38:09 10° WNW 05:47:43 49° SW 05:49:29 45° SSW visible
12 Aug 9.4 03:09:53 10° NW 03:19:45 61° NNE 03:29:33 11° ESE visible
12 Aug 9.5 05:15:09 10° WNW 05:24:49 53° SW 05:27:44 42° S visible
13 Aug 9.4 04:52:09 10° WNW 05:01:54 56° SW 05:06:03 37° S visible
13 Aug 11.0 07:02:13 10° WSW 07:04:15 12° WSW 07:04:15 12° WSW visible
14 Aug 9.4 04:29:10 10° WNW 04:38:59 60° SW 04:44:25 30° SSE visible
14 Aug 10.9 06:38:19 10° W 06:42:37 13° WSW 06:42:37 13° WSW visible
15 Aug 9.4 04:06:12 10° WNW 04:16:03 64° SW 04:22:52 23° SSE visible
15 Aug 10.8 06:14:41 10° W 06:19:47 15° WSW 06:21:04 15° SW visible
